[Iaude] MPEC G86: 2024 GC1 [a=1.26,e=0.18,i=25.5,H=25.0]
    mpec at cfa.harvard.edu 
    mpec at cfa.harvard.edu
       
    Sun Apr  7 01:07:32 EDT 2024
    
    
  
M.P.E.C. 2024-G86                                 Issued 2024 April 7, 05:06 UT
     The Minor Planet Electronic Circulars contain information on unusual
         minor planets, routine data on comets and natural satellites,
         and occasional editorial announcements.  They are published
    on behalf of Division F of the International Astronomical Union by the
          Minor Planet Center, Smithsonian Astrophysical Observatory,
                          Cambridge, MA 02138, U.S.A.
			  
             Prepared using the Tamkin Foundation Computer Network
                              MPC at CFA.HARVARD.EDU
            URL https://www.minorplanetcenter.net/    ISSN 1523-6714
                                    2024 GC1                                    
Observations:
     K24G01C*1C2024 04 04.26947512 38 11.684-16 27 56.66         20.68GVEG086G96
     K24G01C 1C2024 04 04.27503812 38 08.250-16 28 59.74         20.55GVEG086G96
     K24G01C 1C2024 04 04.28059612 38 04.765-16 30 01.98         21.01GVEG086G96
     K24G01C 1C2024 04 04.28614512 38 01.309-16 31 04.04         21.17GVEG086G96
     K24G01C KC2024 04 04.34458612 37 25.108-16 41 54.20         21.01GVEG086I52
     K24G01C KC2024 04 04.34724312 37 23.470-16 42 23.65         20.80GVEG086I52
     K24G01C KC2024 04 04.34990612 37 21.806-16 42 52.81         20.66GVEG086I52
     K24G01C KC2024 04 04.35257312 37 20.186-16 43 22.80         20.66GVEG086I52
     K24G01C |C2024 04 05.12629012 29 53.380-19 01 14.80         20.7 GVEG086807
     K24G01C |C2024 04 05.13297012 29 49.370-19 02 24.80         20.7 GVEG086807
     K24G01C |C2024 04 05.13960012 29 45.370-19 03 34.20         20.7 GVEG086807
     K24G01C |C2024 04 07.17526012 10 57.600-24 29 12.80         21.4 GVEG086807
     K24G01C |C2024 04 07.18414012 10 52.560-24 30 29.80         21.3 GVEG086807
     K24G01C |C2024 04 07.19243012 10 47.920-24 31 41.80         21.4 GVEG086807
Observer details:
807 Cerro Tololo Observatory, La Serena.  Observers T. Linder, R. Holmes.
    0.61-m f/6.8 Ritchey-Chretien + CCD.
G96 Mt. Lemmon Survey.  Observer G. J. Leonard.  Measurers T. Beuden, V. F.
    Carvajal, D. Fay, J. B. Fazekas, D. C. Fuls, A. R. Gibbs, A. D. Grauer, H.
    Groeller, J. K. Hogan, R. A. Kowalski, S. M. Larson, G. J. Leonard, D.
    Rankin, R. L. Seaman, F. C. Shelly, K. W. Wierzchos.  1.5-m reflector +
    10K CCD.
I52 Steward Observatory, Mt. Lemmon Station.  Observer R. A. Kowalski.
    Measurers T. Beuden, V. F. Carvajal, D. Fay, J. B. Fazekas, D. C. Fuls, A.
    R. Gibbs, A. D. Grauer, H. Groeller, J. K. Hogan, R. A. Kowalski, S. M.
    Larson, G. J. Leonard, D. Rankin, R. L. Seaman, F. C. Shelly, K. W.
    Wierzchos.  1.0-m prime focus + CCD.
Orbital elements:
2024 GC1                                                 Earth MOID = 0.0950 AU
Epoch 2024 Mar. 31.0 TT = JDT 2460400.5                 MPC                     
M  35.61027              (2000.0)            P               Q                  
n   0.69915692     Peri.  128.98856     -0.76563931     -0.63651738             
a   1.2572441      Node    12.45638     +0.37058895     -0.55457982             
e   0.1751686      Incl.   25.53035     +0.52579490     -0.53599146             
P   1.41           H   25.05          G   0.15           U   9                  
Residuals in seconds of arc
240404 G96  0.0   0.7+    240404 I52  0.1+  0.1-    240405 807  0.1+  0.3+
240404 G96  0.3+  0.1-    240404 I52  0.1-  0.2+    240407 807  0.6+  0.3-
240404 G96  0.2-  0.2-    240404 I52  0.3+  0.2-    240407 807  0.2-  0.0
240404 G96  0.4-  0.2-    240405 807  0.4-  0.2-    240407 807  0.1-  0.1+
240404 I52  0.0   0.1-    240405 807  0.0   0.0
Ephemeris:
2024 GC1                 a,e,i = 1.26, 0.18, 26                  q = 1.0370
Date    TT    R. A. (2000) Decl.     Delta      r    Elong.  Phase     V
2024 03 08    16 18 24.6 +45 30 19   0.1968  1.0553   103.3    66.3    24.0
...
2024 03 23    14 42 47.2 +25 11 17   0.1128  1.0789   134.6    41.2    22.1
...
2024 03 31    13 22 04.9 -01 33 28   0.09729 1.0945   168.8    10.2    20.8
...
2024 04 06    12 21 37.9 -21 28 28   0.1116  1.1075   162.3    16.0    21.4
2024 04 07    12 12 31.8 -24 03 30   0.1158  1.1098   158.8    19.0    21.6
2024 04 08    12 03 48.5 -26 24 33   0.1205  1.1120   155.5    21.9    21.7
...
2024 04 14    11 20 09.7 -36 21 46   0.1547  1.1261   140.1    34.8    22.7
...
2024 04 22    10 43 29.7 -42 45 19   0.2097  1.1460   127.9    43.8    23.6
...
2024 05 07    10 17 47.9 -47 14 07   0.3212  1.1854   116.0    49.9    24.8
A. U. Tomatic                (C) Copyright 2024 MPC           M.P.E.C. 2024-G86
    
    
More information about the Iaude
mailing list